TimeEST,TemperatureF,Dew PointF,Humidity,Sea Level PressureIn,VisibilityMPH,Wind Direction,Wind SpeedMPH,Gust SpeedMPH,PrecipitationIn,Events,Conditions,WindDirDegrees,DateUTC
12:15 AM,32.0,28.4,87,30.21,10.0,SW,5.8,-,N/A,,Clear,230,2012-11-09 05:15:00
12:35 AM,32.0,30.2,93,30.21,10.0,SW,3.5,-,N/A,,Clear,220,2012-11-09 05:35:00
12:55 AM,32.0,30.2,93,30.21,10.0,SSW,3.5,-,N/A,,Clear,210,2012-11-09 05:55:00
1:15 AM,30.2,28.4,93,30.20,10.0,SW,5.8,-,N/A,,Clear,220,2012-11-09 06:15:00
1:35 AM,30.2,28.4,93,30.20,10.0,SW,5.8,-,N/A,,Clear,230,2012-11-09 06:35:00
1:55 AM,30.2,28.4,93,30.21,10.0,SW,4.6,-,N/A,,Clear,230,2012-11-09 06:55:00
2:15 AM,30.2,28.4,93,30.21,10.0,SW,5.8,-,N/A,,Clear,230,2012-11-09 07:15:00
2:35 AM,32.0,28.4,87,30.22,10.0,SW,5.8,-,N/A,,Clear,230,2012-11-09 07:35:00
2:55 AM,30.2,28.4,93,30.22,10.0,SW,5.8,-,N/A,,Clear,230,2012-11-09 07:55:00
3:15 AM,30.2,28.4,93,30.23,-9999.0,SW,5.8,-,N/A,,Unknown,230,2012-11-09 08:15:00
3:35 AM,30.2,28.4,93,30.23,10.0,SW,5.8,-,N/A,,Clear,230,2012-11-09 08:35:00
3:55 AM,32.0,30.2,93,30.22,-9999.0,SW,6.9,-,N/A,,Unknown,230,2012-11-09 08:55:00
4:15 AM,32.0,28.4,87,30.22,-9999.0,SSW,4.6,-,N/A,,Unknown,210,2012-11-09 09:15:00
4:35 AM,30.2,28.4,93,30.22,-9999.0,SSW,6.9,-,N/A,,Unknown,210,2012-11-09 09:35:00
4:55 AM,30.2,28.4,93,30.23,-9999.0,SSW,4.6,-,N/A,,Unknown,210,2012-11-09 09:55:00
5:15 AM,32.0,28.4,87,30.23,-9999.0,SSW,3.5,-,N/A,,Unknown,200,2012-11-09 10:15:00
5:35 AM,32.0,28.4,87,30.24,-9999.0,Calm,Calm,-,N/A,,Unknown,0,2012-11-09 10:35:00
5:55 AM,32.0,28.4,87,30.25,-9999.0,SSW,3.5,-,N/A,,Unknown,210,2012-11-09 10:55:00
6:15 AM,32.0,28.4,87,30.25,10.0,Calm,Calm,-,N/A,,Clear,0,2012-11-09 11:15:00
6:35 AM,28.4,26.6,93,30.26,10.0,Calm,Calm,-,N/A,,Clear,0,2012-11-09 11:35:00
6:55 AM,28.4,28.4,100,30.27,10.0,SW,4.6,-,N/A,,Clear,230,2012-11-09 11:55:00
7:15 AM,28.4,28.4,100,30.28,-9999.0,SW,5.8,-,N/A,,Unknown,230,2012-11-09 12:15:00
7:35 AM,28.4,28.4,100,30.29,-9999.0,SW,5.8,-,N/A,,Unknown,230,2012-11-09 12:35:00
7:55 AM,30.2,28.4,93,30.29,-9999.0,SW,4.6,-,N/A,,Unknown,220,2012-11-09 12:55:00
8:15 AM,32.0,30.2,93,30.29,-9999.0,SW,4.6,-,N/A,,Unknown,220,2012-11-09 13:15:00
8:35 AM,33.8,32.0,93,30.29,-9999.0,SW,4.6,-,N/A,,Unknown,220,2012-11-09 13:35:00
8:55 AM,39.2,32.0,75,30.29,10.0,SW,3.5,-,N/A,,Clear,220,2012-11-09 13:55:00
9:15 AM,42.8,33.8,70,30.30,10.0,SW,3.5,-,N/A,,Clear,230,2012-11-09 14:15:00
9:35 AM,44.6,33.8,66,30.30,10.0,SW,5.8,-,N/A,,Clear,230,2012-11-09 14:35:00
9:55 AM,44.6,35.6,71,30.30,10.0,SW,3.5,-,N/A,,Clear,220,2012-11-09 14:55:00
10:15 AM,46.4,35.6,66,30.30,10.0,WSW,6.9,-,N/A,,Clear,240,2012-11-09 15:15:00
10:35 AM,48.2,35.6,62,30.30,10.0,SW,6.9,-,N/A,,Clear,230,2012-11-09 15:35:00
10:55 AM,50.0,37.4,62,30.30,10.0,WSW,5.8,-,N/A,,Clear,250,2012-11-09 15:55:00
11:15 AM,50.0,37.4,62,30.29,10.0,WSW,5.8,-,N/A,,Clear,240,2012-11-09 16:15:00
11:35 AM,51.8,37.4,58,30.28,10.0,WSW,5.8,-,N/A,,Clear,240,2012-11-09 16:35:00
11:55 AM,51.8,37.4,58,30.27,10.0,WSW,5.8,-,N/A,,Clear,240,2012-11-09 16:55:00
12:15 PM,53.6,37.4,54,30.26,10.0,WSW,5.8,-,N/A,,Clear,240,2012-11-09 17:15:00
12:35 PM,53.6,37.4,54,30.25,10.0,SSW,6.9,-,N/A,,Clear,210,2012-11-09 17:35:00
12:55 PM,55.4,37.4,51,30.24,10.0,WSW,8.1,-,N/A,,Clear,240,2012-11-09 17:55:00
1:15 PM,55.4,39.2,54,30.23,10.0,SW,5.8,-,N/A,,Clear,230,2012-11-09 18:15:00
1:35 PM,57.2,37.4,48,30.22,10.0,SSW,6.9,-,N/A,,Clear,200,2012-11-09 18:35:00
1:55 PM,59.0,37.4,45,30.21,10.0,SSW,8.1,-,N/A,,Clear,200,2012-11-09 18:55:00
2:15 PM,59.0,35.6,42,30.20,10.0,SW,6.9,-,N/A,,Clear,220,2012-11-09 19:15:00
2:35 PM,59.0,35.6,42,30.20,10.0,SSW,4.6,-,N/A,,Clear,210,2012-11-09 19:35:00
2:55 PM,60.8,35.6,39,30.19,10.0,SSW,8.1,-,N/A,,Clear,200,2012-11-09 19:55:00
3:15 PM,60.8,35.6,39,30.19,10.0,SSW,9.2,-,N/A,,Clear,200,2012-11-09 20:15:00
3:35 PM,60.8,33.8,36,30.19,10.0,SSW,6.9,-,N/A,,Clear,210,2012-11-09 20:35:00
3:55 PM,60.8,33.8,36,30.19,10.0,SW,8.1,-,N/A,,Clear,220,2012-11-09 20:55:00
4:15 PM,60.8,35.6,39,30.18,10.0,Calm,Calm,-,N/A,,Clear,0,2012-11-09 21:15:00
4:35 PM,59.0,35.6,42,30.18,10.0,SW,5.8,-,N/A,,Clear,220,2012-11-09 21:35:00
4:55 PM,57.2,35.6,44,30.18,10.0,SSW,3.5,-,N/A,,Clear,210,2012-11-09 21:55:00
5:15 PM,57.2,35.6,44,30.18,10.0,SSW,3.5,-,N/A,,Clear,210,2012-11-09 22:15:00
5:35 PM,53.6,33.8,47,30.19,10.0,Calm,Calm,-,N/A,,Clear,0,2012-11-09 22:35:00
5:55 PM,51.8,33.8,50,30.19,10.0,SW,3.5,-,N/A,,Clear,220,2012-11-09 22:55:00
6:15 PM,51.8,35.6,54,30.19,10.0,SW,3.5,-,N/A,,Clear,220,2012-11-09 23:15:00
6:35 PM,46.4,35.6,66,30.20,10.0,SW,4.6,-,N/A,,Clear,220,2012-11-09 23:35:00
6:55 PM,46.4,35.6,66,30.20,10.0,SW,3.5,-,N/A,,Clear,220,2012-11-09 23:55:00
7:15 PM,48.2,33.8,58,30.20,10.0,SSW,4.6,-,N/A,,Clear,210,2012-11-10 00:15:00
7:35 PM,46.4,33.8,62,30.20,10.0,SSW,4.6,-,N/A,,Clear,200,2012-11-10 00:35:00
7:55 PM,46.4,33.8,62,30.19,10.0,SSW,5.8,-,N/A,,Clear,200,2012-11-10 00:55:00
8:15 PM,48.2,33.8,58,30.19,10.0,SSW,8.1,-,N/A,,Clear,200,2012-11-10 01:15:00
8:35 PM,50.0,33.8,54,30.18,10.0,South,6.9,-,N/A,,Clear,190,2012-11-10 01:35:00
8:55 PM,51.8,33.8,50,30.18,10.0,SSW,6.9,-,N/A,,Clear,200,2012-11-10 01:55:00
9:15 PM,50.0,33.8,54,30.19,10.0,SSW,6.9,-,N/A,,Clear,200,2012-11-10 02:15:00
9:35 PM,51.8,33.8,50,30.19,10.0,SSW,8.1,-,N/A,,Clear,200,2012-11-10 02:35:00
9:55 PM,51.8,33.8,50,30.19,10.0,SSW,9.2,-,N/A,,Clear,210,2012-11-10 02:55:00
10:15 PM,51.8,33.8,50,30.19,10.0,SSW,9.2,-,N/A,,Clear,210,2012-11-10 03:15:00
10:35 PM,50.0,33.8,54,30.19,10.0,SSW,8.1,-,N/A,,Clear,210,2012-11-10 03:35:00
10:55 PM,50.0,33.8,54,30.19,10.0,SSW,8.1,-,N/A,,Clear,210,2012-11-10 03:55:00
11:15 PM,50.0,33.8,54,30.19,10.0,SSW,9.2,-,N/A,,Clear,210,2012-11-10 04:15:00
11:35 PM,50.0,33.8,54,30.19,10.0,SW,8.1,-,N/A,,Clear,220,2012-11-10 04:35:00
11:55 PM,50.0,33.8,54,30.19,10.0,SW,6.9,-,N/A,,Clear,220,2012-11-10 04:55:00